Location: Newark
(39.5667°N, 8.9833°E)
Time: 06:13:16
(UTC+00:00)

Transit 2A - Visible Passes

Search period start: 22 October 2019 00:00
Search period end: 01 November 2019 00:00
Orbit: 600 x 958 km, 66.7° (Epoch: 20 October)

Date Brightness Start Highest point End Pass type
(mag) Time Alt. Az. Time Alt. Az. Time Alt. Az.
22 Oct 7.7 02:57:36 21° ESE 02:57:36 21° ESE 02:59:15 10° SE visible
22 Oct 7.1 04:38:11 16° WSW 04:38:11 16° WSW 04:40:29 10° SW visible
22 Oct 6.2 17:29:01 10° S 17:34:24 51° ESE 17:39:17 10° NE visible
22 Oct 8.1 19:13:34 10° WSW 19:17:45 23° NW 19:20:26 15° N visible
23 Oct 7.5 04:06:24 15° SSW 04:06:24 15° SSW 04:07:28 10° SSW visible
23 Oct 6.7 16:55:23 10° S 17:00:21 34° ESE 17:04:55 10° NE visible
23 Oct 7.6 18:38:41 10° WSW 18:43:30 32° NW 18:47:44 11° N visible
24 Oct 7.0 18:04:04 10° SW 18:09:17 46° WNW 18:14:04 10° NNE visible
25 Oct 6.3 17:29:40 10° SW 17:35:09 68° WNW 17:40:05 10° NNE visible
25 Oct 8.8 19:17:56 10° NW 19:19:05 11° NW 19:20:12 10° NNW visible
26 Oct 6.0 16:55:30 10° SSW 17:01:01 82° ESE 17:06:00 10° NNE visible
26 Oct 8.5 18:41:43 10° W 18:44:40 15° NW 18:47:29 10° N visible
27 Oct 8.2 18:06:24 10° W 18:10:20 21° NW 18:14:01 10° N visible
28 Oct 7.8 17:31:27 10° WSW 17:36:04 29° NW 17:40:19 10° N visible
29 Oct 7.2 16:56:46 10° SW 17:01:51 42° WNW 17:06:29 10° NNE visible
31 Oct 8.4 17:34:42 10° WNW 17:37:16 14° NW 17:39:44 10° NNW visible
